| time (UTC) | temp F | wind direction | speed MPH | gust MPH | rain 1hr in | rain 24hr in | rain mn in | humidity % | barometer mb |
| 20260903074520 | 50 | 234 | 3.0 | 13.0 | 0.00 | 0.00 | 0.00 | 38 | 1010.5 |
| 20260903073024 | 48 | 271 | 8.0 | 18.0 | 0.00 | 0.00 | 0.00 | 41 | 1010.2 |
| 20260903070017 | 47 | 264 | 5.0 | 18.0 | 0.00 | 0.00 | 0.00 | 48 | 1010.8 |
| 20260903064516 | 47 | 275 | 7.0 | 23.0 | 0.00 | 0.00 | 0.00 | 50 | 1011.2 |
| 20260903063017 | 47 | 277 | 7.0 | 22.0 | 0.00 | 0.00 | 0.00 | 49 | 1011.5 |
| 20260903060018 | 47 | 246 | 9.0 | 20.0 | 0.00 | 0.00 | 0.00 | 52 | 1011.7 |
| 20260903054520 | 47 | 273 | 8.0 | 14.0 | 0.00 | 0.00 | 0.00 | 54 | 1011.9 |
| 20260903053017 | 47 | 287 | 4.0 | 15.0 | 0.00 | 0.00 | 0.00 | 54 | 1012.1 |
| 20260903050017 | 46 | 257 | 7.0 | 15.0 | 0.00 | 0.00 | 0.00 | 58 | 1012.2 |
| 20260903044512 | 46 | 267 | 5.0 | 15.0 | 0.00 | 0.00 | 0.00 | 59 | 1012.1 |
| 20260903043016 | 45 | 261 | 5.0 | 14.0 | 0.00 | 0.00 | 0.00 | 60 | 1012.1 |
| 20260903040015 | 45 | 259 | 7.0 | 14.0 | 0.00 | 0.00 | 0.00 | 62 | 1012.1 |
| 20260903034512 | 46 | 250 | 4.0 | 11.0 | 0.00 | 0.00 | 0.00 | 61 | 1012.1 |
| 20260903033011 | 46 | 289 | 3.0 | 12.0 | 0.00 | 0.00 | 0.00 | 59 | 1012.1 |
| 20260903030019 | 47 | 250 | 0.0 | 7.0 | 0.00 | 0.00 | 0.00 | 56 | 1012.0 |
| 20260903024511 | 47 | 219 | 3.0 | 9.0 | 0.00 | 0.00 | 0.00 | 54 | 1011.8 |
| 20260903023010 | 48 | 205 | 1.0 | 10.0 | 0.00 | 0.00 | 0.00 | 52 | 1011.9 |
| 20260903020019 | 49 | 259 | 2.0 | 8.0 | 0.00 | 0.00 | 0.00 | 48 | 1011.6 |
| 20260903014507 | 50 | 283 | 5.0 | 16.0 | 0.00 | 0.00 | 0.00 | 47 | 1011.4 |
| 20260903013006 | 51 | 276 | 3.0 | 15.0 | 0.00 | 0.00 | 0.00 | 46 | 1011.5 |
| 20260903010008 | 54 | 267 | 3.0 | 14.0 | 0.00 | 0.00 | 0.00 | 41 | 1011.6 |
| 20260903004510 | 55 | 306 | 2.0 | 10.0 | 0.00 | 0.00 | 0.00 | 39 | 1011.5 |
| 20260903003006 | 56 | 287 | 2.0 | 9.0 | 0.00 | 0.00 | 0.00 | 40 | 1011.5 |
| 20260903000010 | 55 | 292 | 9.0 | 20.0 | 0.00 | 0.00 | 0.00 | 39 | 1011.7 |
| 20260902234508 | 54 | 286 | 7.0 | 24.0 | 0.00 | 0.00 | 0.00 | 40 | 1011.8 |
| 20260902233004 | 55 | 276 | 7.0 | 19.0 | 0.00 | 0.00 | 0.00 | 40 | 1011.7 |
| 20260902230010 | 55 | 279 | 7.0 | 24.0 | 0.00 | 0.00 | 0.00 | 40 | 1011.4 |
| 20260902224510 | 57 | 267 | 2.0 | 14.0 | 0.00 | 0.00 | 0.00 | 41 | 1011.5 |
| 20260902223019 | 57 | 242 | 5.0 | 14.0 | 0.00 | 0.00 | 0.00 | 39 | 1011.5 |
| 20260902220003 | 57 | 254 | 5.0 | 11.0 | 0.00 | 0.00 | 0.00 | 39 | 1011.5 |
| 20260902214506 | 56 | 243 | 4.0 | 17.0 | 0.00 | 0.00 | 0.00 | 39 | 1011.6 |
| 20260902213002 | 57 | 255 | 7.0 | 26.0 | 0.00 | 0.00 | 0.00 | 38 | 1011.5 |
| 20260902210004 | 56 | 218 | 7.0 | 20.0 | 0.00 | 0.00 | 0.00 | 39 | 1011.4 |
| 20260902204600 | 56 | 253 | 2.0 | 32.0 | 0.00 | 0.00 | 0.00 | 40 | 1011.3 |
| 20260902203059 | 55 | 305 | 5.0 | 24.0 | 0.00 | 0.00 | 0.00 | 41 | 1011.3 |
| 20260902200058 | 55 | 140 | 8.0 | 23.0 | 0.00 | 0.00 | 0.00 | 39 | 1011.3 |
| 20260902194557 | 55 | 281 | 5.0 | 12.0 | 0.00 | 0.00 | 0.00 | 39 | 1011.4 |
| 20260902193058 | 54 | 117 | 5.0 | 18.0 | 0.00 | 0.00 | 0.00 | 40 | 1011.1 |
| 20260902190054 | 55 | 276 | 6.0 | 21.0 | 0.00 | 0.00 | 0.00 | 39 | 1011.3 |
| 20260902184553 | 55 | 295 | 7.0 | 17.0 | 0.00 | 0.00 | 0.00 | 37 | 1011.1 |
| 20260902183102 | 54 | 278 | 8.0 | 19.0 | 0.00 | 0.00 | 0.00 | 37 | 1010.9 |
| 20260902180057 | 56 | 15 | 4.0 | 15.0 | 0.00 | 0.00 | 0.00 | 35 | 1011.1 |
| 20260902174558 | 56 | 263 | 3.0 | 11.0 | 0.00 | 0.00 | 0.00 | 35 | 1011.1 |
| 20260902173114 | 55 | 276 | 2.0 | 16.0 | 0.00 | 0.00 | 0.00 | 37 | 1010.8 |
| 20260902170040 | 51 | 297 | 3.0 | 15.0 | 0.00 | 0.00 | 0.00 | 42 | 1010.9 |
| 20260902164539 | 50 | 302 | 7.0 | 16.0 | 0.00 | 0.00 | 0.00 | 41 | 1010.7 |
| 20260902163038 | 50 | 275 | 3.0 | 15.0 | 0.00 | 0.00 | 0.00 | 42 | 1010.8 |
| 20260902160049 | 45 | 221 | 8.0 | 21.0 | 0.00 | 0.00 | 0.00 | 45 | 1010.8 |
| 20260902154542 | 46 | 289 | 8.0 | 27.0 | 0.00 | 0.00 | 0.00 | 43 | 1010.7 |
| 20260902153038 | 46 | 275 | 5.0 | 18.0 | 0.00 | 0.00 | 0.00 | 43 | 1010.4 |
| 20260902150028 | 44 | 261 | 10.0 | 20.0 | 0.00 | 0.00 | 0.00 | 44 | 1009.5 |
| 20260902144528 | 44 | 304 | 5.0 | 26.0 | 0.00 | 0.00 | 0.00 | 44 | 1009.5 |
| 20260902143027 | 43 | 296 | 9.0 | 19.0 | 0.00 | 0.00 | 0.00 | 45 | 1009.1 |
| 20260902140025 | 42 | 275 | 6.0 | 11.0 | 0.00 | 0.00 | 0.00 | 1008.5 | |
| 20260902134521 | 0 | 0.0 | 0.0 | 0.00 | 0.00 | 0.00 | 1008.6 | ||
| 20260902133018 | 0 | 0.0 | 0.0 | 0.00 | 0.00 | 0.00 | 1008.5 | ||
| 20260902130010 | 0 | 0.0 | 0.0 | 0.00 | 0.00 | 0.00 | 1008.4 | ||
| 20260902124506 | 0 | 0.0 | 0.0 | 0.00 | 0.00 | 0.00 | 1008.5 | ||
| 20260902123006 | 0 | 0.0 | 0.0 | 0.00 | 0.00 | 0.00 | 1008.9 | ||
| 20260902121657 | 0 | 0.0 | 0.0 | 0.00 | 0.00 | 0.00 | 1009.0 | ||
| 20260902120055 | 0 | 0.0 | 0.0 | 0.00 | 0.00 | 0.00 | 1009.3 | ||
| 20260902114552 | 41 | 272 | 3.0 | 22.0 | 0.00 | 0.00 | 0.00 | 60 | 1009.2 |
| 20260902113049 | 42 | 214 | 5.0 | 25.0 | 0.00 | 0.00 | 0.00 | 59 | 1008.7 |
| 20260902111646 | 43 | 261 | 6.0 | 22.0 | 0.00 | 0.00 | 0.00 | 54 | 1008.5 |
| 20260902110055 | 43 | 269 | 8.0 | 26.0 | 0.00 | 0.00 | 0.00 | 51 | 1008.2 |
| 20260902104542 | 43 | 211 | 7.0 | 27.0 | 0.00 | 0.00 | 0.00 | 47 | 1008.1 |
| 20260902103040 | 43 | 303 | 6.0 | 16.0 | 0.00 | 0.00 | 0.00 | 47 | 1007.9 |
| 20260902101639 | 43 | 256 | 4.0 | 18.0 | 0.00 | 0.00 | 0.00 | 49 | 1008.2 |
| 20260902100047 | 44 | 269 | 7.0 | 27.0 | 0.00 | 0.00 | 0.00 | 48 | 1008.3 |
| 20260902094548 | 44 | 272 | 4.0 | 16.0 | 0.00 | 0.00 | 0.00 | 46 | 1008.2 |
| 20260902093043 | 45 | 267 | 7.0 | 30.0 | 0.00 | 0.00 | 0.00 | 43 | 1008.0 |
| 20260902090039 | 46 | 272 | 6.0 | 21.0 | 0.00 | 0.00 | 0.00 | 40 | 1008.1 |
| 20260902084530 | 46 | 226 | 8.0 | 30.0 | 0.00 | 0.00 | 0.00 | 38 | 1008.3 |
| 20260902083029 | 45 | 281 | 8.0 | 33.0 | 0.00 | 0.00 | 0.00 | 41 | 1008.6 |
| 20260902081629 | 45 | 257 | 5.0 | 16.0 | 0.00 | 0.00 | 0.00 | 43 | 1008.3 |
| 20260902080029 | 45 | 254 | 7.0 | 25.0 | 0.00 | 0.00 | 0.00 | 40 | 1008.3 |